星链-31739 (STARLINK-31739 )

导读 | 星芒AI

STARLINK-31739 是 SpaceX Starlink 卫星互联网项目中的一颗低轨卫星,属于第 12 批次发射的 Starlink 卫星群。该卫星于 2023 年 10 月 由猎鹰 9 号火箭送入近地轨道,运行高度约 550 公里,用于提供全球宽带互联网服务。Starlink 项目旨在通过大规模卫星星座,为偏远和网络覆盖不足地区提供高速、低延迟的互联网接入。STARLINK-31739 采用先进推进和通信技术,支持自动避碰功能,以确保轨道安全。

基本信息
目录编号:
59766
目录名称:
STARLINK-31739
国际标识:
2024-091P
轨道中心:
EARTH
卫星名称:
星链-31739
卫星全名:
星链-31739 (STARLINK-31739 )
卫星状态:
在轨 (已飞行585 天)
发射日期:
2024-05-14 UTC
国别 :
美国 (US)
星等 :
--
轨道信息
数据来源 国际轨道数据
星历时间: 2025-12-18T21:18:57+0800
1天前
查看轨道信息
半长轴: 6853.364km
偏心率: 0.0001309
轨道倾角: 53.161°
近地点辐角 78.300°
升交点赤经 40.824°
平近点角 281.815°
近地点: 474.331km
远地点: 476.127km
周期: 94.106分钟
每日圈数: 15.301963
详细信息
固有亮度:
5
最大亮度:
1.5
卫星平台:
Starlink v2.0 mini
覆盖范围:
全球
运营商:
太空探索技术公司
运营商所在国:
美国
制造商(研发单位):
太空探索技术公司
制造商所在国:
美国
使用方式:
暂无
卫星简介
星链(Starlink)计划是由太空探索技术公司(SpaceX)提出的一个巨型低轨卫星互联网星座项目,计划在2019年至2024年间在太空搭建由约1.2万颗卫星组成的“星链”网络,其中1584颗将部署在地球上空550千米处的近地轨道,并从2020年开始工作。该卫星仍在工作。
2D轨道图
3D轨道图
轨道高度分析图
轨道倾角分析图
轨道综合分析图
查看轨道综合分析图